Regional Weather Roundup
Issued by NWS San Angelo, TX

Home | Current Version | Previous Version | Text Only | Print | Product List | Glossary On
Versions: 1 2 3 4 5 6 7 8 9 10 11 12 13 14 15 16 17 18 19 20 21 22 23 24 25 26 27 28 29 30 31 32 33 34 35 36 37 38 39 40 41 42 43 44 45 46 47 48 49 50
000
ASUS44 KSJT 300758
RWRSJT
WEST CENTRAL TEXAS REGIONAL WEATHER ROUNDUP
NATIONAL WEATHER SERVICE SAN ANGELO TX
300 AM CDT SAT APR 30 2016

NOTE: "FAIR" INDICATES FEW OR NO CLOUDS BELOW 12,000 FEET WITH NO
SIGNIFICANT WEATHER AND/OR OBSTRUCTIONS TO VISIBILITY.

TXZ049-054-064>066-071>073-076>078-098-099-113-114-127-128-139-140-
154-155-168>170-300900
...LOCATIONS ACROSS WEST CENTRAL TEXAS...

CITY           SKY/WX    TMP DP  RH WIND       PRES   REMARKS
SAN ANGELO     CLOUDY    59  43  55 NE9       29.72S
ABILENE        PTCLDY    56  49  77 NW10      29.77R
DYESS AFB      NOT AVBL
JUNCTION       PTCLDY    55  50  83 W7        29.69F
SWEETWATER     NOT AVBL
BROWNWOOD      NOT AVBL
COLEMAN        NOT AVBL
SONORA         NOT AVBL
OZONA          NOT AVBL
BRADY          NOT AVBL
$$

TEXAS PANHANDLE/OKLAHOMA PANHANDLE

CITY           SKY/WX    TMP DP  RH WIND       PRES   REMARKS
AMARILLO       PTCLDY    39  37  92 NW9       29.83R WCI  33
BORGER         CLEAR     41  37  86 NW7       29.83R WCI  36
CANADIAN       NOT AVBL
DALHART        CLEAR     37  34  89 NW3       29.84S
DUMAS          NOT AVBL
GUYMON         NOT AVBL
HEREFORD       NOT AVBL
PAMPA          NOT AVBL
PERRYTON       NOT AVBL
$$

SOUTHERN PANHANDLE/SOUTH PLAINS/ROLLING PLAINS

CITY           SKY/WX    TMP DP  RH WIND       PRES   REMARKS
LUBBOCK        CLEAR     47  43  86 N7        29.80R
SNYDER         NOT AVBL
CHILDRESS      PTCLDY    48  44  86 N10       29.79R
SEMINOLE       NOT AVBL
$$

PERMIAN BASIN

CITY           SKY/WX    TMP DP  RH WIND       PRES   REMARKS
MIDLAND        CLEAR     60  19  20 SW3       29.77R
ODESSA         CLEAR     63  20  19 NW7       29.77R
WINK           CLEAR     57  22  25 NW8       29.75F
$$

FAR WEST/SOUTHWEST MOUNTAINS/TRANS PECOS

CITY           SKY/WX    TMP DP  RH WIND       PRES   REMARKS
ALPINE         NOT AVBL
DRYDEN           N/A     61  18  18 NW3       29.73F
EL PASO        PTCLDY    61  27  27 N5        29.86F
FORT STOCKTON  CLEAR     59  16  18 SW9       29.79S
GUADALUPE PASS NOT AVBL
MARFA          NOT AVBL
PECOS          NOT AVBL
$$

DALLAS/FORT WORTH METROPLEX

CITY           SKY/WX    TMP DP  RH WIND       PRES   REMARKS
DFW AIRPORT    CLOUDY    66  62  87 N12       29.65R
FTW MEACHAM    CLEAR     63  60  90 NW10      29.66R
DAL-EXECUTIVE  CLEAR     65  61  87 NW14      29.64S
GRAND PRAIRIE  NOT AVBL
ADDISON        NOT AVBL
MESQUITE       NOT AVBL
LANCASTER      NOT AVBL
$$

NORTH CENTRAL TEXAS

CITY           SKY/WX    TMP DP  RH WIND       PRES   REMARKS
SHRMAN/DENISON NOT AVBL
GAINESVILLE    NOT AVBL
BRIDGEPORT     NOT AVBL
DENTON         CLOUDY    62  60  93 N13       29.67S
WAXAHACHIE     NOT AVBL
GRANBURY       NOT AVBL
$$

WESTERN NORTH TEXAS

CITY           SKY/WX    TMP DP  RH WIND       PRES   REMARKS
WICHITA FALLS  CLOUDY    55  51  86 N10       29.72F
VERNON         NOT AVBL
BRECKENRIDGE   NOT AVBL
COMANCHE       NOT AVBL
$$

CENTRAL AND SOUTH CENTRAL TEXAS

CITY           SKY/WX    TMP DP  RH WIND       PRES   REMARKS
AUSTIN/BERGSTM PTCLDY    72  70  93 W3        29.59F
WACO           CLEAR     65  63  93 CALM      29.64S
HILLSBORO      NOT AVBL
TEMPLE         PTCLDY    66  64  93 CALM      29.65F
KILLEEN-GRAY   NOT AVBL
FORT HOOD      MOCLDY    66  64  94 NW3       29.63F
GEORGETOWN     NOT AVBL
LAGO VISTA     NOT AVBL
SAN MARCOS     NOT AVBL
NEW BRAUNFELS  CLOUDY    72  68  87 CALM      29.58F
RANDOLPH AFB   DRIZZLE   72  72 100 NE6       29.60F
SAN ANTONIO    CLOUDY    72  70  93 NE5       29.60F FOG
STINSON        CLOUDY    78  74  87 S10       29.55F FOG
PLEASANTON     NOT AVBL
LA GRANGE      NOT AVBL
GIDDINGS       NOT AVBL
$$

EAST TEXAS

CITY           SKY/WX    TMP DP  RH WIND       PRES   REMARKS
PARIS          NOT AVBL
CLARKSVILLE    NOT AVBL
TYLER          CLOUDY    69  67  93 E12       29.64R
LONGVIEW       RAIN      67  66  97 S13       29.67F
PALESTINE      NOT AVBL
NACOGDOCHES    NOT AVBL
$$

TEXAS HILL COUNTRY AND EDWARDS PLATEAU

CITY           SKY/WX    TMP DP  RH WIND       PRES   REMARKS
LLANO          NOT AVBL
HORSESHOE BAY  NOT AVBL
KERRVILLE      NOT AVBL
FREDERICKSBRG  NOT AVBL
ROCKSPRINGS    NOT AVBL
HONDO          CLOUDY    75  74  96 NW8       29.64R FOG
UVALDE         NOT AVBL
DEL RIO        CLOUDY    64  56  75 CALM      29.66F
$$

SOUTHEAST TEXAS

CITY           SKY/WX    TMP DP  RH WIND       PRES   REMARKS
COLLEGE STN    TSTM      70  68  93 CALM      29.60F
CALDWELL       NOT AVBL
CROCKETT       NOT AVBL
BRENHAM        NOT AVBL
HUNTSVILLE     TSTM      69  68  96 NW9       29.63R VSB 1
CONROE         CLOUDY    77  71  82 S14       29.61F THUNDER
HOUSTON BUSH   CLOUDY    76  72  87 S12G18    29.61F
HOUSTON HOBBY  CLOUDY    76  74  93 S16G23    29.61F
PERLAND        LGT RAIN  77  75  93 S16       29.63F FOG
WHARTON        NOT AVBL
$$

THE UPPER TEXAS COAST

CITY           SKY/WX    TMP DP  RH WIND       PRES   REMARKS
ORANGE         NOT AVBL
PORT ARTHUR    CLOUDY    76  73  91 SE17G26   29.65F
GALVESTON      CLOUDY    76  75  97 S18       29.66F
ANGLETON       LGT RAIN  77  74  90 S18       29.63F
BAY CITY       NOT AVBL
$$

TEXAS COASTAL BEND, RIO GRANDE PLAINS DEEP SOUTH TEXAS

CITY           SKY/WX    TMP DP  RH WIND       PRES   REMARKS
VICTORIA       CLOUDY    78  75  90 S10       29.60F FOG
BEEVILLE       NOT AVBL
ROCKPORT       CLOUDY    79  75  87 S9        29.60F
PORT ARANSAS   NOT AVBL
PORT LAVACA    NOT AVBL
CORPUS CHRISTI CLOUDY    79  75  87 S12       29.59F
KINGSVILLE NAS CLOUDY    77  77 100 SE5       29.58F FOG
COTULLA        CLOUDY    79  74  84 SE5       29.58F
LAREDO         NOT AVBL
BROWNSVILLE    CLOUDY    78  76  93 S10       29.59F FOG
PORT ISABEL    CLOUDY    80  77  90 S12       29.58F FOG
HEBBRONVILLE   NOT AVBL
MCALLEN        CLOUDY    79  75  87 SE8       29.57F FOG
WESLACO        NOT AVBL
FALFURRIAS     NOT AVBL
EDINBURG       NOT AVBL
$$



USA.gov is the U.S. government's official web portal to all federal, state and local government web resources and services.